IW6PHZ-13 Weather Reports


time (UTC)temp
C
wind
direction
speed
KPH
gust
KPH
rain 1hr
cm
rain 24hr
cm
rain mn
cm
humidity
%
barometer
mb
20260507235045 15 327 4.8 12.9 0.00 0.00 0.00 86 1013.2
20260507234553 15 347 4.8 12.9 0.00 0.00 0.00 85 1013.2
20260507234045 15 345 6.4 12.9 0.00 0.00 0.00 84 1013.3
20260507233545 15 360 3.2 8.0 0.00 0.00 0.00 84 1013.4
20260507233050 15 20 4.8 11.3 0.00 0.00 0.00 83 1013.4
20260507232544 16 26 3.2 12.9 0.00 0.00 0.00 82 1013.4
20260507232046 16 14 4.8 12.9 0.00 0.00 0.00 81 1013.5
20260507231558 16 26 4.8 11.3 0.00 0.00 0.00 80 1013.7
20260507231046 16 16 4.8 11.3 0.00 0.00 0.00 79 1013.8
20260507230546 16 13 4.8 9.7 0.00 0.00 0.00 76 1013.8
20260507230054 17 32 1.6 9.7 0.00 0.00 0.00 68 1013.8
20260507225544 17 0 1.6 4.8 0.00 0.00 0.00 68 1013.6
20260507225045 17 246 1.6 6.4 0.00 0.00 0.00 70 1013.7
20260507224556 17 270 1.6 6.4 0.00 0.00 0.00 72 1013.8
20260507224045 16 273 3.2 6.4 0.00 0.00 0.00 73 1013.8
20260507223545 16 301 1.6 4.8 0.00 0.00 0.00 76 1013.7
20260507223054 16 301 1.6 4.8 0.00 0.00 0.00 77 1013.8
20260507222545 16 338 1.6 4.8 0.00 0.00 0.00 78 1013.9
20260507222045 16 350 3.2 4.8 0.00 0.00 0.00 77 1013.8
20260507221551 16 348 1.6 6.4 0.00 0.00 0.00 78 1013.9
20260507221045 16 318 1.6 6.4 0.00 0.00 0.00 77 1013.9
20260507220544 16 0 1.6 6.4 0.00 0.00 0.00 76 1013.8
20260507220051 16 253 3.2 8.0 0.00 0.00 0.00 77 1013.8
20260507215545 16 217 3.2 9.7 0.00 0.00 0.00 79 1013.9
20260507215045 16 211 4.8 11.3 0.00 0.00 0.00 80 1013.8
20260507214552 16 211 6.4 11.3 0.00 0.00 0.00 80 1013.8
20260507214045 16 215 8.0 11.3 0.00 0.00 0.00 81 1013.7
20260507213548 16 211 6.4 14.5 0.00 0.00 0.00 81 1013.7
20260507213053 16 213 8.0 14.5 0.00 0.00 0.00 82 1013.8
20260507212548 16 197 9.7 14.5 0.00 0.00 0.00 82 1013.7
20260507212045 16 211 6.4 11.3 0.00 0.00 0.00 83 1013.9
20260507211552 16 198 4.8 9.7 0.00 0.00 0.00 83 1013.7
20260507211044 16 204 3.2 9.7 0.00 0.00 0.00 83 1013.8
20260507210545 16 208 3.2 9.7 0.00 0.00 0.00 83 1013.9
20260507210053 16 265 6.4 9.7 0.00 0.00 0.00 83 1013.8
20260507205543 16 204 3.2 9.7 0.00 0.00 0.00 83 1013.8
20260507205045 16 243 3.2 8.0 0.00 0.00 0.00 83 1013.8
20260507204553 16 192 3.2 9.7 0.00 0.00 0.00 83 1013.8
20260507204044 16 165 3.2 9.7 0.00 0.00 0.00 82 1013.9
20260507203544 16 201 3.2 12.9 0.00 0.00 0.00 82 1014.0
20260507203057 16 185 4.8 12.9 0.00 0.00 0.00 81 1013.8
20260507202545 16 190 6.4 12.9 0.00 0.00 0.00 81 1013.9
20260507202043 16 186 4.8 11.3 0.00 0.00 0.00 81 1014.0
20260507201607 16 185 3.2 9.7 0.00 0.00 0.00 80 1014.0
20260507201047 16 185 4.8 8.0 0.00 0.00 0.00 80 1013.9
20260507200546 16 198 4.8 8.0 0.00 0.00 0.00 81 1014.0
20260507200056 16 144 1.6 3.2 0.00 0.00 0.00 82 1013.9
20260507195545 16 144 0.0 3.2 0.00 0.00 0.00 83 1014.0
20260507195048 16 0 0.0 3.2 0.00 0.00 0.00 84 1014.0
20260507194553 16 94 0.0 3.2 0.00 0.00 0.00 84 1013.9
20260507194045 16 0 0.0 3.2 0.00 0.00 0.00 84 1013.9
20260507193542 16 94 0.0 6.4 0.00 0.00 0.00 85 1013.9
20260507193056 16 0 1.6 6.4 0.00 0.00 0.00 85 1013.8
20260507192547 16 94 1.6 6.4 0.00 0.00 0.00 87 1013.8
20260507192045 16 94 1.6 3.2 0.00 0.00 0.00 87 1013.7
20260507191556 16 63 0.0 3.2 0.00 0.00 0.00 87 1013.7
20260507191045 16 0 0.0 3.2 0.00 0.00 0.00 87 1013.7
20260507190544 16 0 0.0 3.2 0.00 0.00 0.00 87 1013.7
20260507190051 16 0 0.0 1.6 0.00 0.00 0.00 87 1013.6
20260507185544 16 0 0.0 4.8 0.00 0.00 0.00 87 1013.5
20260507185044 16 38 0.0 4.8 0.00 0.00 0.00 87 1013.6
20260507184553 16 0 0.0 8.0 0.00 0.00 0.00 87 1013.6
20260507184044 16 104 1.6 11.3 0.00 0.00 0.00 87 1013.7
20260507183548 16 127 4.8 11.3 0.00 0.00 0.00 87 1013.7
20260507183115 16 127 3.2 8.0 0.00 0.00 0.00 87 1013.6
20260507182545 16 138 3.2 8.0 0.00 0.00 0.00 86 1013.7
20260507182046 16 138 4.8 9.7 0.00 0.00 0.00 86 1013.6
20260507181553 16 146 3.2 9.7 0.00 0.00 0.00 86 1013.6
20260507181042 16 0 1.6 6.4 0.00 0.00 0.00 85 1013.4
20260507180545 16 129 1.6 4.8 0.00 0.00 0.00 84 1013.4
20260507180052 16 0 0.0 3.2 0.00 0.00 0.00 84 1013.4
20260507175544 16 0 0.0 4.8 0.00 0.00 0.00 83 1013.4
20260507175044 16 57 0.0 4.8 0.00 0.00 0.00 82 1013.3
20260507174604 16 57 0.0 4.8 0.00 0.00 0.00 81 1013.4
20260507174044 17 57 0.0 6.4 0.00 0.00 0.00 81 1013.4
20260507173544 17 57 0.0 6.4 0.00 0.00 0.00 80 1013.3
20260507173049 17 47 1.6 6.4 0.00 0.00 0.00 81 1013.2
20260507172547 17 25 1.6 8.0 0.00 0.00 0.00 81 1013.1
20260507172045 17 30 3.2 8.0 0.00 0.00 0.00 79 1013.1
20260507171601 17 0 1.6 8.0 0.00 0.00 0.00 77 1013.1
20260507171045 17 39 1.6 8.0 0.00 0.00 0.00 77 1013.1
20260507170543 17 22 0.0 6.4 0.00 0.00 0.00 75 1013.0
20260507170052 18 0 0.0 4.8 0.00 0.00 0.00 72 1013.1
20260507165542 18 0 0.0 4.8 0.00 0.00 0.00 69 1013.1
20260507165044 18 50 0.0 4.8 0.00 0.00 0.00 69 1013.1
20260507164553 18 0 0.0 3.2 0.00 0.00 0.00 70 1013.1
20260507164043 18 0 0.0 4.8 0.00 0.00 0.00 69 1013.1
20260507163543 18 0 0.0 4.8 0.00 0.00 0.00 70 1012.9
20260507163049 18 0 0.0 4.8 0.00 0.00 0.00 68 1012.9
20260507162545 18 355 0.0 4.8 0.00 0.00 0.00 69 1013.0
20260507162045 18 0 0.0 4.8 0.00 0.00 0.00 69 1013.1
20260507161552 18 0 0.0 4.8 0.00 0.00 0.00 67 1013.1
20260507161042 18 36 0.0 6.4 0.00 0.00 0.00 67 1013.2
20260507160542 18 0 0.0 6.4 0.00 0.00 0.00 68 1013.1
20260507160054 18 0 0.0 4.8 0.00 0.00 0.00 67 1013.1
20260507155543 18 331 0.0 4.8 0.00 0.00 0.00 72 1013.1
20260507155045 18 0 0.0 4.8 0.00 0.00 0.00 72 1013.2
20260507154549 18 312 0.0 8.0 0.00 0.00 0.00 70 1013.1
20260507154042 17 94 0.0 8.0 0.00 0.00 0.00 70 1013.2
20260507153543 17 355 1.6 8.0 0.00 0.00 0.00 71 1013.1
20260507153047 17 0 0.0 8.0 0.00 0.00 0.00 75 1013.1
20260507152543 17 0 1.6 8.0 0.00 0.00 0.00 73 1013.2
20260507152043 17 355 1.6 9.7 0.00 0.00 0.00 74 1013.1
20260507151547 17 42 3.2 9.7 0.00 0.00 0.00 74 1013.1
20260507151042 18 0 1.6 8.0 0.00 0.00 0.00 74 1013.1
20260507150544 18 0 1.6 8.0 0.00 0.00 0.00 73 1013.2
20260507150054 17 352 1.6 12.9 0.00 0.00 0.00 75 1013.1
20260507145543 17 34 3.2 12.9 0.00 0.00 0.00 75 1013.2
20260507145042 17 71 3.2 12.9 0.00 0.00 0.00 74 1013.2
20260507144614 18 5 0.0 6.4 0.00 0.00 0.00 74 1013.1
20260507144043 17 50 1.6 8.0 0.00 0.00 0.00 73 1013.1
20260507143544 18 27 3.2 8.0 0.00 0.00 0.00 73 1013.3
20260507143054 18 24 1.6 8.0 0.00 0.00 0.00 73 1013.3
20260507142542 18 36 1.6 6.4 0.00 0.00 0.00 72 1013.3
20260507142042 18 0 0.0 6.4 0.00 0.00 0.00 74 1013.4
20260507141613 17 29 1.6 6.4 0.00 0.00 0.00 77 1013.3
20260507141042 17 0 0.0 6.4 0.00 0.00 0.00 77 1013.4
20260507140541 17 32 1.6 8.0 0.00 0.00 0.00 77 1013.3
20260507140053 17 29 1.6 9.7 0.00 0.00 0.00 77 1013.6
20260507135546 17 13 0.0 11.3 0.00 0.00 0.00 77 1013.6
20260507135044 17 0 3.2 11.3 0.00 0.00 0.00 75 1013.3
20260507134552 17 48 3.2 8.0 0.00 0.00 0.00 75 1013.3
20260507134042 18 22 0.0 12.9 0.00 0.00 0.00 76 1013.4
20260507133543 17 0 1.6 12.9 0.00 0.00 0.00 75 1013.3
20260507133049 18 0 1.6 12.9 0.00 0.00 0.00 76 1013.2
20260507132542 17 308 1.6 12.9 0.00 0.00 0.00 77 1013.3
20260507132043 18 22 0.0 11.3 0.00 0.00 0.00 77 1013.3
20260507131550 18 44 1.6 11.3 0.00 0.00 0.00 79 1013.4
20260507131042 17 52 3.2 12.9 0.00 0.00 0.00 77 1013.4
20260507130544 17 17 3.2 12.9 0.00 0.00 0.00 77 1013.4
20260507130104 17 52 3.2 12.9 0.00 0.00 0.00 75 1013.4
20260507125542 17 48 1.6 16.1 0.00 0.00 0.00 79 1013.4
20260507125043 17 0 3.2 16.1 0.00 0.00 0.00 80 1013.5
20260507124548 17 11 3.2 12.9 0.00 0.00 0.00 81 1013.6
20260507124042 17 15 3.2 12.9 0.00 0.00 0.00 79 1013.7
20260507123543 17 360 3.2 12.9 0.00 0.00 0.00 79 1013.6
20260507123052 17 32 3.2 12.9 0.00 0.00 0.00 80 1013.7
20260507122544 17 31 3.2 12.9 0.00 0.00 0.00 78 1013.6
20260507122042 17 28 3.2 12.9 0.00 0.00 0.00 77 1013.6
20260507121552 17 21 3.2 12.9 0.00 0.00 0.00 76 1013.5
20260507121052 18 86 1.6 11.3 0.00 0.00 0.00 73 1013.5
20260507120542 17 13 3.2 14.5 0.00 0.00 0.00 75 1013.7
20260507120057 18 82 1.6 14.5 0.00 0.00 0.00 74 1013.6
20260507115541 17 20 4.8 14.5 0.00 0.00 0.00 73 1013.6
20260507115044 17 11 3.2 9.7 0.00 0.00 0.00 76 1013.5
20260507114556 17 5 1.6 11.3 0.00 0.00 0.00 78 1013.5
20260507114044 17 303 3.2 11.3 0.00 0.00 0.00 78 1013.6
20260507113542 17 55 3.2 16.1 0.00 0.00 0.00 76 1013.5
20260507113050 17 9 4.8 16.1 0.00 0.00 0.00 76 1013.4
20260507112542 18 340 3.2 9.7 0.00 0.00 0.00 75 1013.5
20260507112045 18 12 1.6 9.7 0.00 0.00 0.00 76 1013.4
20260507111553 17 45 3.2 9.7 0.00 0.00 0.00 77 1013.4
20260507111045 18 26 1.6 9.7 0.00 0.00 0.00 75 1013.4
20260507110542 18 24 3.2 11.3 0.00 0.00 0.00 76 1013.4
20260507110054 17 0 3.2 12.9 0.00 0.00 0.00 78 1013.4
20260507105542 18 17 3.2 12.9 0.00 0.00 0.00 77 1013.5
20260507105044 18 350 3.2 12.9 0.00 0.00 0.00 79 1013.6
20260507104556 17 9 1.6 12.9 0.00 0.00 0.00 81 1013.6
20260507104045 17 9 4.8 12.9 0.00 0.00 0.00 80 1013.7
20260507103543 17 9 1.6 16.1 0.00 0.00 0.00 80 1013.7
20260507103050 17 28 3.2 16.1 0.00 0.00 0.00 81 1013.7
20260507102542 17 317 3.2 12.9 0.00 0.00 0.00 82 1013.6
20260507102042 17 5 3.2 14.5 0.00 0.00 0.00 82 1013.6
20260507101551 17 27 3.2 14.5 0.00 0.00 0.00 83 1013.7
20260507101047 17 30 1.6 14.5 0.00 0.00 0.00 84 1013.7
20260507100541 17 18 3.2 14.5 0.00 0.00 0.00 84 1013.6
20260507100052 17 47 3.2 14.5 0.00 0.00 0.00 84 1013.5
20260507095545 18 311 3.2 12.9 0.00 0.00 0.00 84 1013.5
20260507095044 17 36 3.2 12.9 0.00 0.00 0.00 84 1013.6
20260507094549 17 0 3.2 12.9 0.00 0.00 0.00 84 1013.4
20260507094045 17 337 1.6 12.9 0.00 0.00 0.00 82 1013.5
20260507093542 17 0 3.2 12.9 0.00 0.00 0.00 82 1013.7
20260507093052 17 334 1.6 11.3 0.00 0.00 0.00 82 1013.6
20260507092542 17 315 3.2 11.3 0.00 0.00 0.00 83 1013.6
20260507092042 17 355 3.2 11.3 0.00 0.00 0.00 83 1013.7
20260507091557 17 341 1.6 11.3 0.00 0.00 0.00 84 1013.7
20260507091042 17 340 3.2 9.7 0.00 0.00 0.00 83 1013.8
20260507090541 17 0 1.6 11.3 0.00 0.00 0.00 84 1013.8
20260507090050 17 344 3.2 11.3 0.00 0.00 0.00 84 1013.7
20260507085542 17 346 1.6 9.7 0.00 0.00 0.00 84 1013.8
20260507085047 17 0 1.6 9.7 0.00 0.00 0.00 85 1013.7
20260507084547 16 346 3.2 9.7 0.00 0.00 0.00 85 1013.8
20260507084044 17 329 1.6 9.7 0.00 0.00 0.00 85 1013.8
20260507083543 17 20 3.2 12.9 0.00 0.00 0.00 84 1013.6
20260507083052 17 351 4.8 14.5 0.00 0.00 0.00 84 1013.7
20260507082548 16 355 4.8 14.5 0.00 0.00 0.00 84 1013.6
20260507082041 17 346 1.6 14.5 0.00 0.00 0.00 84 1013.7
20260507081552 17 336 3.2 12.9 0.00 0.00 0.00 84 1013.5
20260507081044 17 333 3.2 12.9 0.00 0.00 0.00 83 1013.5
20260507080543 17 5 3.2 12.9 0.00 0.00 0.00 84 1013.5
20260507080056 16 0 3.2 12.9 0.00 0.00 0.00 85 1013.4
20260507075542 16 343 3.2 11.3 0.00 0.00 0.00 85 1013.3
20260507075048 17 333 1.6 12.9 0.00 0.00 0.00 85 1013.3
20260507074550 17 336 1.6 12.9 0.00 0.00 0.00 85 1013.3
20260507074044 17 348 1.6 9.7 0.00 0.00 0.00 85 1013.2
20260507073545 17 342 1.6 14.5 0.00 0.00 0.00 85 1013.2
20260507073055 16 355 1.6 14.5 0.00 0.00 0.00 84 1013.2
20260507072542 16 329 4.8 14.5 0.00 0.00 0.00 84 1013.2
20260507072045 16 0 4.8 14.5 0.00 0.00 0.00 84 1013.2
20260507071552 17 342 1.6 9.7 0.00 0.00 0.00 85 1013.3
20260507071044 17 319 1.6 9.7 0.00 0.00 0.00 85 1013.4
20260507070545 17 23 3.2 14.5 0.00 0.00 0.00 85 1013.3
20260507070058 16 309 4.8 14.5 0.00 0.00 0.00 85 1013.3
20260507065547 16 299 4.8 11.3 0.00 0.00 0.00 85 1013.3
20260507065041 16 298 1.6 9.7 0.00 0.00 0.00 86 1013.2
20260507064552 16 337 3.2 9.7 0.00 0.00 0.00 86 1013.3
20260507064042 16 329 1.6 6.4 0.00 0.00 0.00 86 1013.2
20260507063545 16 331 1.6 8.0 0.00 0.00 0.00 86 1013.2
20260507063056 16 295 1.6 8.0 0.00 0.00 0.00 86 1013.1
20260507062542 16 315 1.6 8.0 0.00 0.00 0.00 87 1013.0
20260507062044 16 305 3.2 8.0 0.00 0.00 0.00 88 1013.0
20260507061555 16 290 4.8 8.0 0.00 0.00 0.00 89 1013.1
20260507061043 16 302 3.2 8.0 0.00 0.00 0.00 89 1013.2
20260507060541 15 302 3.2 9.7 0.00 0.00 0.00 89 1013.2
20260507060058 15 327 3.2 12.9 0.00 0.00 0.00 89 1013.1
20260507055542 15 332 6.4 14.5 0.00 0.00 0.00 89 1013.1
20260507055044 15 316 6.4 14.5 0.00 0.00 0.00 90 1013.1
20260507054552 15 313 6.4 12.9 0.00 0.00 0.00 90 1013.1
20260507054046 15 318 6.4 12.9 0.00 0.00 0.00 90 1013.0
20260507053546 15 309 6.4 17.7 0.00 0.00 0.00 90 1013.0
20260507053101 15 317 4.8 17.7 0.00 0.00 0.00 90 1012.9
20260507052545 15 327 8.0 17.7 0.00 0.00 0.00 90 1012.8
20260507052046 15 312 6.4 16.1 0.00 0.00 0.00 90 1012.8
20260507051549 15 306 6.4 17.7 0.00 0.00 0.00 90 1012.7
20260507051045 15 309 8.0 17.7 0.00 0.00 0.00 91 1012.6
20260507050547 15 306 9.7 17.7 0.00 0.00 0.00 91 1012.5
20260507050057 15 311 8.0 17.7 0.00 0.00 0.00 91 1012.4
20260507045549 15 315 9.7 20.9 0.00 0.00 0.00 91 1012.4
20260507045046 15 306 12.9 20.9 0.00 0.00 0.00 92 1012.3
20260507044558 15 308 11.3 20.9 0.00 0.00 0.00 92 1012.3
20260507044047 15 305 9.7 20.9 0.00 0.00 0.00 92 1012.1
20260507043545 15 306 11.3 20.9 0.00 0.00 0.00 92 1012.1
20260507043058 15 313 11.3 19.3 0.00 0.00 0.00 92 1011.9
20260507042546 15 292 12.9 19.3 0.00 0.00 0.00 92 1011.9
20260507042047 15 292 11.3 19.3 0.00 0.00 0.00 92 1011.8
20260507041600 15 313 9.7 16.1 0.00 0.00 0.00 91 1011.9
20260507041045 15 337 8.0 17.7 0.00 0.00 0.00 91 1011.7
20260507040549 15 324 6.4 17.7 0.00 0.00 0.00 91 1011.8
20260507040058 15 317 8.0 16.1 0.00 0.00 0.00 90 1011.6
20260507035545 15 313 8.0 16.1 0.00 0.00 0.00 90 1011.6
20260507035045 15 355 8.0 16.1 0.00 0.00 0.00 90 1011.6
20260507034608 15 315 6.4 16.1 0.00 0.00 0.00 90 1011.7
20260507034047 15 319 9.7 16.1 0.00 0.00 0.00 89 1011.6
20260507033546 15 322 9.7 16.1 0.00 0.00 0.00 89 1011.6
20260507033056 15 315 6.4 17.7 0.00 0.00 0.00 89 1011.7
20260507032545 15 311 9.7 19.3 0.00 0.00 0.00 88 1011.6
20260507032046 15 340 9.7 19.3 0.00 0.00 0.00 88 1011.5
20260507031558 15 313 9.7 24.1 0.00 0.00 0.00 87 1011.4
20260507031045 15 340 9.7 24.1 0.00 0.00 0.00 87 1011.3
20260507030548 15 296 8.0 17.7 0.00 0.00 0.00 86 1011.3
20260507030057 15 318 8.0 17.7 0.00 0.00 0.00 85 1011.2
20260507025547 15 341 8.0 17.7 0.00 0.00 0.00 85 1011.3
20260507025047 15 323 9.7 17.7 0.00 0.00 0.00 84 1011.1
20260507024557 15 5 8.0 17.7 0.00 0.00 0.00 83 1011.1
20260507024047 15 348 6.4 14.5 0.00 0.00 0.00 83 1011.0
20260507023546 16 339 8.0 16.1 0.00 0.00 0.00 82 1011.1
20260507023053 16 325 6.4 16.1 0.00 0.00 0.00 82 1011.0
20260507022546 16 328 8.0 16.1 0.00 0.00 0.00 81 1011.0
20260507022045 16 336 6.4 20.9 0.00 0.00 0.00 81 1011.0
20260507021557 16 311 4.8 20.9 0.00 0.00 0.00 80 1010.9
20260507021045 16 308 9.7 20.9 0.00 0.00 0.00 79 1010.9
20260507020546 16 332 9.7 17.7 0.00 0.00 0.00 79 1010.9
20260507020104 16 22 9.7 17.7 0.00 0.00 0.00 79 1010.8
20260507015545 16 330 8.0 17.7 0.00 0.00 0.00 78 1010.7
20260507015046 16 348 9.7 19.3 0.00 0.00 0.00 79 1010.6
20260507014556 16 345 8.0 19.3 0.00 0.00 0.00 79 1010.7
20260507014047 16 331 9.7 19.3 0.00 0.00 0.00 80 1010.7
20260507013545 16 324 11.3 19.3 0.00 0.00 0.00 82 1010.7
20260507013101 16 317 11.3 19.3 0.00 0.00 0.00 83 1010.7
20260507012545 16 317 9.7 19.3 0.00 0.00 0.00 84 1010.7
20260507012046 16 295 11.3 19.3 0.00 0.00 0.00 86 1010.7
20260507011555 15 301 9.7 16.1 0.00 0.00 0.00 88 1010.7
20260507011049 15 275 8.0 14.5 0.00 0.00 0.00 90 1010.7
20260507010547 15 312 6.4 14.5 0.00 0.00 0.00 90 1010.6
20260507010050 15 306 8.0 16.1 0.00 0.00 0.00 90 1010.5
20260507005546 15 311 9.7 16.1 0.00 0.00 0.00 89 1010.4
20260507005045 15 316 11.3 20.9 0.00 0.00 0.00 89 1010.5
20260507004559 15 315 9.7 20.9 0.00 0.00 0.00 89 1010.5
20260507004045 15 317 11.3 20.9 0.00 0.00 0.00 88 1010.5
20260507003550 15 321 11.3 20.9 0.00 0.00 0.00 87 1010.6
20260507003053 16 326 11.3 20.9 0.00 0.00 0.00 86 1010.6
20260507002545 16 343 11.3 17.7 0.00 0.00 0.00 85 1010.6
20260507002045 16 324 9.7 16.1 0.00 0.00 0.00 85 1010.6
20260507001550 16 319 8.0 14.5 0.00 0.00 0.00 85 1010.7
20260507001046 16 315 8.0 14.5 0.00 0.00 0.00 84 1010.8
20260507000549 16 333 8.0 14.5 0.00 0.00 0.00 84 1010.8
20260507000055 16 323 8.0 12.9 0.00 0.00 0.00 83 1010.8
20260506235546 16 335 6.4 9.7 0.00 0.00 0.00 83 1010.8